EN

Hourly Weather Gyula

Today, 6 March, Saturday

Time Temperature Precipitation Wind Pressure Humidity
00:00 -1°C° 0 mm 6 mps 759 mmHg 65%
01:00 -2°C° 0 mm 6 mps 759 mmHg 62%
02:00 -1°C° 0 mm 5 mps 760 mmHg 62%
03:00 -2°C° 0 mm 5 mps 760 mmHg 63%
04:00 -2°C° 0 mm 5 mps 761 mmHg 64%
05:00 -2°C° 0 mm 5 mps 762 mmHg 64%
06:00 -2°C° 0 mm 5 mps 762 mmHg 64%
07:00 -2°C° 0 mm 5 mps 763 mmHg 64%
08:00 -1°C° 0 mm 5 mps 763 mmHg 59%
09:00 +1°C° 0 mm 5 mps 764 mmHg 54%
10:00 +2°C° 0 mm 5 mps 764 mmHg 48%
11:00 +2°C° 0 mm 5 mps 764 mmHg 45%
12:00 +3°C° 0 mm 5 mps 764 mmHg 42%
13:00 +4°C° 0 mm 4 mps 764 mmHg 39%
14:00 +4°C° 0 mm 4 mps 764 mmHg 39%
15:00 +4°C° 0 mm 4 mps 764 mmHg 39%
16:00 +4°C° 0 mm 3 mps 764 mmHg 39%
17:00 +4°C° 0 mm 2 mps 764 mmHg 44%
18:00 +3°C° 0 mm 2 mps 764 mmHg 49%
19:00 +3°C° 0 mm 1 mps 764 mmHg 54%
20:00 +3°C° 0 mm 1 mps 765 mmHg 55%
21:00 +2°C° 0 mm 1 mps 765 mmHg 57%
22:00 +2°C° 0 mm 1 mps 765 mmHg 58%
23:00 +2°C° 0 mm 1 mps 765 mmHg 59%

Tomorrow, 7 March, Sunday

Time Temperature Precipitation Wind Pressure Humidity
00:00 +1°C° 0 mm 2 mps 765 mmHg 60%
01:00 -1°C° 0 mm 2 mps 765 mmHg 61%
02:00 -1°C° 0 mm 2 mps 765 mmHg 61%
03:00 -1°C° 0 mm 2 mps 764 mmHg 61%
04:00 -1°C° 0 mm 2 mps 764 mmHg 62%
05:00 -1°C° 0 mm 2 mps 764 mmHg 61%
06:00 -1°C° 0 mm 2 mps 764 mmHg 61%
07:00 -1°C° 0 mm 2 mps 764 mmHg 61%
08:00 +2°C° 0 mm 2 mps 763 mmHg 54%
09:00 +2°C° 0 mm 3 mps 763 mmHg 48%
10:00 +4°C° 0 mm 3 mps 763 mmHg 42%
11:00 +4°C° 0 mm 3 mps 762 mmHg 41%
12:00 +5°C° 0 mm 3 mps 762 mmHg 39%
13:00 +7°C° 0 mm 3 mps 761 mmHg 38%
14:00 +7°C° 0 mm 3 mps 760 mmHg 39%
15:00 +7°C° 0 mm 3 mps 759 mmHg 40%
16:00 +6°C° 0 mm 2 mps 758 mmHg 41%
17:00 +5°C° 0 mm 2 mps 758 mmHg 45%
18:00 +4°C° 0 mm 2 mps 758 mmHg 49%
19:00 +3°C° 0 mm 2 mps 758 mmHg 53%
20:00 +3°C° 0 mm 2 mps 758 mmHg 55%
21:00 +2°C° 0 mm 2 mps 757 mmHg 56%
22:00 +2°C° 0 mm 2 mps 757 mmHg 57%
23:00 +1°C° 0 mm 2 mps 757 mmHg 58%

Day after tomorrow, 8 March, Monday

Time Temperature Precipitation Wind Pressure Humidity
00:00 +1°C° 0 mm 2 mps 756 mmHg 58%
01:00 +1°C° 0 mm 2 mps 756 mmHg 59%
02:00 +1°C° 0 mm 2 mps 756 mmHg 60%
03:00 +1°C° 0 mm 2 mps 755 mmHg 60%
04:00 -1°C° 0 mm 2 mps 755 mmHg 61%
05:00 +1°C° 0 mm 2 mps 755 mmHg 61%
06:00 +1°C° 0 mm 2 mps 755 mmHg 61%
07:00 +1°C° 0 mm 2 mps 755 mmHg 61%
08:00 +2°C° 0 mm 3 mps 755 mmHg 57%
09:00 +3°C° 0 mm 3 mps 755 mmHg 53%
10:00 +5°C° 0 mm 3 mps 755 mmHg 48%
11:00 +6°C° 0 mm 4 mps 755 mmHg 46%
12:00 +7°C° 0 mm 4 mps 755 mmHg 44%
13:00 +8°C° 0 mm 4 mps 755 mmHg 42%
14:00 +8°C° 0 mm 4 mps 755 mmHg 44%
15:00 +8°C° 0 mm 4 mps 754 mmHg 45%
16:00 +8°C° 0 mm 4 mps 754 mmHg 46%
17:00 +7°C° 0 mm 3 mps 754 mmHg 53%
18:00 +5°C° 0 mm 3 mps 755 mmHg 59%
19:00 +4°C° 0 mm 2 mps 755 mmHg 66%
20:00 +3°C° 0 mm 3 mps 755 mmHg 67%
21:00 +2°C° 0 mm 3 mps 756 mmHg 69%
22:00 +1°C° 0 mm 3 mps 756 mmHg 70%
23:00 0°C° 0 mm 4 mps 756 mmHg 69%

9 March, Tuesday

Time Temperature Precipitation Wind Pressure Humidity
00:00 -1°C° 0 mm 4 mps 756 mmHg 68%
01:00 -1°C° 0 mm 4 mps 756 mmHg 67%
02:00 -2°C° 0 mm 4 mps 756 mmHg 68%
03:00 -1°C° 0 mm 3 mps 756 mmHg 69%
04:00 -1°C° 0 mm 3 mps 756 mmHg 70%
05:00 -1°C° 0 mm 3 mps 756 mmHg 68%
06:00 -2°C° 0 mm 4 mps 756 mmHg 66%
07:00 -2°C° 0 mm 4 mps 756 mmHg 65%
08:00 -1°C° 0 mm 4 mps 757 mmHg 60%
09:00 +1°C° 0 mm 4 mps 757 mmHg 55%
10:00 +3°C° 0 mm 4 mps 757 mmHg 50%
11:00 +4°C° 0 mm 3 mps 757 mmHg 47%
12:00 +4°C° 0 mm 3 mps 757 mmHg 45%
13:00 +5°C° 0 mm 3 mps 756 mmHg 42%
14:00 +5°C° 0 mm 3 mps 756 mmHg 43%
15:00 +5°C° 0 mm 3 mps 756 mmHg 45%
16:00 +4°C° 0 mm 3 mps 756 mmHg 46%
17:00 +3°C° 0 mm 3 mps 756 mmHg 50%
18:00 +2°C° 0 mm 3 mps 756 mmHg 54%
19:00 +1°C° 0 mm 3 mps 757 mmHg 58%
20:00 +1°C° 0 mm 3 mps 757 mmHg 58%
21:00 +1°C° 0 mm 2 mps 757 mmHg 59%
22:00 +1°C° 0 mm 2 mps 757 mmHg 59%
23:00 +1°C° 0 mm 2 mps 757 mmHg 60%

10 March, Wednesday

Time Temperature Precipitation Wind Pressure Humidity
00:00 +1°C° 0 mm 2 mps 757 mmHg 60%
01:00 +1°C° 0 mm 2 mps 757 mmHg 60%
02:00 -1°C° 0 mm 2 mps 757 mmHg 61%
03:00 -1°C° 0 mm 2 mps 757 mmHg 61%
04:00 +1°C° 0 mm 1 mps 757 mmHg 62%
05:00 +1°C° 0 mm 1 mps 758 mmHg 62%
06:00 +2°C° 0 mm 1 mps 758 mmHg 62%
07:00 +2°C° 0 mm 1 mps 758 mmHg 61%
08:00 +3°C° 0 mm 1 mps 758 mmHg 56%
09:00 +4°C° 0 mm 1 mps 758 mmHg 52%
10:00 +5°C° 0 mm 2 mps 759 mmHg 47%
11:00 +6°C° 0 mm 2 mps 759 mmHg 46%
12:00 +6°C° 0 mm 2 mps 759 mmHg 46%
13:00 +7°C° 0 mm 3 mps 758 mmHg 46%
14:00 +7°C° 0 mm 2 mps 758 mmHg 48%
15:00 +7°C° 0 mm 2 mps 758 mmHg 50%
16:00 +7°C° 0 mm 2 mps 758 mmHg 52%
17:00 +7°C° 0 mm 1 mps 758 mmHg 56%
18:00 +6°C° 0 mm 1 mps 758 mmHg 60%
19:00 +5°C° 0 mm 0 mps 758 mmHg 65%
20:00 +5°C° 0 mm 1 mps 759 mmHg 67%
21:00 +5°C° 0 mm 1 mps 759 mmHg 70%
22:00 +4°C° 0 mm 1 mps 760 mmHg 72%
23:00 +3°C° 0 mm 2 mps 759 mmHg 74%

11 March, Thursday

Time Temperature Precipitation Wind Pressure Humidity
00:00 +3°C° 0 mm 2 mps 759 mmHg 76%
01:00 +2°C° 0 mm 2 mps 759 mmHg 78%
02:00 +2°C° 0 mm 2 mps 759 mmHg 79%
03:00 +2°C° 0 mm 2 mps 759 mmHg 80%
04:00 +1°C° 0 mm 2 mps 759 mmHg 81%
05:00 0°C° 0 mm 3 mps 759 mmHg 80%
06:00 +1°C° 0 mm 3 mps 759 mmHg 79%
07:00 0°C° 0 mm 4 mps 759 mmHg 78%
08:00 +3°C° 0 mm 4 mps 759 mmHg 71%
09:00 +3°C° 0 mm 5 mps 759 mmHg 65%
10:00 +6°C° 0 mm 5 mps 759 mmHg 58%
11:00 +7°C° 0 mm 6 mps 758 mmHg 55%
12:00 +8°C° 0 mm 6 mps 758 mmHg 52%
13:00 +9°C° 0 mm 6 mps 757 mmHg 49%
14:00 +9°C° 0 mm 6 mps 757 mmHg 49%
15:00 +9°C° 0 mm 5 mps 756 mmHg 50%
16:00 +9°C° 0 mm 5 mps 756 mmHg 50%
17:00 +8°C° 0 mm 5 mps 756 mmHg 52%
18:00 +8°C° 0 mm 5 mps 755 mmHg 54%
19:00 +7°C° 0 mm 5 mps 755 mmHg 56%
20:00 +7°C° 0 mm 5 mps 755 mmHg 56%
21:00 +7°C° 0 mm 5 mps 756 mmHg 56%
22:00 +7°C° 0 mm 5 mps 756 mmHg 56%
23:00 +6°C° 0 mm 5 mps 755 mmHg 56%
Show more

We Need Your Consent

Meteoprog and our Service Providers may store and access personal data such as cookies, device identifiers or other similar technologies on your device and process such data to personalise content and ads, as well as provide social media features and to analyse the traffic.

  • Store and/or access information on your device

    Cookies, device identifiers or other information can be stored or accessed on your device for the purposes indicated above.

  • Personalised ads and content, ad and content measurement, audience insights, and products development

    Ads and content can be personalised based on a profile. More data can be added to better personalise ads and content. Ad and content performance can be measured. Insights about the audience who saw the ads and content can be derived. Such data can be used to develop or improve user’s experience, systems and software.

By clicking ‘I Agree’ you will allow the use of indicated cookies, device identifiers, web beacons or other similar technologies. Your settings can be changed in the browser on your device.

For certain purposes, legitimate interests may be relied on, rather than consent. You can read more about this in our Privacy and Cookie Policy.